| time (UTC) | temp C | wind direction | speed KPH | gust KPH | rain 1hr cm | rain 24hr cm | rain mn cm | humidity % | barometer mb |
| 20260504215224 | 19 | 244 | 6.4 | 9.7 | 0.00 | 0.00 | 0.00 | 43 | 1013.9 |
| 20260504214724 | 18 | 175 | 0.0 | 9.7 | 0.00 | 0.00 | 0.00 | 43 | 1013.9 |
| 20260504214224 | 18 | 227 | 0.0 | 3.2 | 0.00 | 0.00 | 0.00 | 43 | 1013.8 |
| 20260504213724 | 18 | 233 | 0.0 | 3.2 | 0.00 | 0.00 | 0.00 | 44 | 1014.0 |
| 20260504213223 | 18 | 260 | 0.0 | 3.2 | 0.00 | 0.00 | 0.00 | 44 | 1014.1 |
| 20260504212724 | 18 | 260 | 0.0 | 6.4 | 0.00 | 0.00 | 0.00 | 44 | 1014.1 |
| 20260504212223 | 18 | 260 | 1.6 | 6.4 | 0.00 | 0.00 | 0.00 | 44 | 1014.1 |
| 20260504211724 | 19 | 303 | 3.2 | 14.5 | 0.00 | 0.00 | 0.00 | 45 | 1014.0 |
| 20260504210223 | 19 | 321 | 0.0 | 8.0 | 0.00 | 0.00 | 0.00 | 47 | 1014.2 |
| 20260504205723 | 20 | 271 | 4.8 | 8.0 | 0.00 | 0.00 | 0.00 | 46 | 1014.2 |
| 20260504204723 | 20 | 310 | 0.0 | 12.9 | 0.00 | 0.00 | 0.00 | 46 | 1014.1 |
| 20260504204223 | 20 | 292 | 4.8 | 9.7 | 0.00 | 0.00 | 0.00 | 47 | 1014.1 |
| 20260504203723 | 20 | 291 | 0.0 | 11.3 | 0.00 | 0.00 | 0.00 | 48 | 1014.0 |
| 20260504203223 | 20 | 232 | 0.0 | 11.3 | 0.00 | 0.00 | 0.00 | 46 | 1014.0 |
| 20260504202723 | 20 | 237 | 3.2 | 11.3 | 0.00 | 0.00 | 0.00 | 46 | 1013.9 |
| 20260504202223 | 21 | 217 | 0.0 | 11.3 | 0.00 | 0.00 | 0.00 | 46 | 1013.9 |
| 20260504201723 | 21 | 175 | 0.0 | 9.7 | 0.00 | 0.00 | 0.00 | 46 | 1013.8 |
| 20260504200723 | 22 | 209 | 4.8 | 17.7 | 0.00 | 0.00 | 0.00 | 44 | 1013.8 |
| 20260504200222 | 22 | 307 | 0.0 | 17.7 | 0.00 | 0.00 | 0.00 | 42 | 1013.8 |
| 20260504195722 | 22 | 165 | 0.0 | 17.7 | 0.00 | 0.00 | 0.00 | 43 | 1013.8 |
| 20260504195222 | 22 | 285 | 3.2 | 17.7 | 0.00 | 0.00 | 0.00 | 42 | 1013.7 |
| 20260504194223 | 21 | 169 | 4.8 | 11.3 | 0.00 | 0.00 | 0.00 | 44 | 1014.0 |
| 20260504193722 | 21 | 193 | 3.2 | 9.7 | 0.00 | 0.00 | 0.00 | 43 | 1014.0 |
| 20260504193222 | 21 | 207 | 4.8 | 9.7 | 0.00 | 0.00 | 0.00 | 44 | 1014.0 |
| 20260504192722 | 21 | 217 | 0.0 | 6.4 | 0.00 | 0.00 | 0.00 | 43 | 1014.1 |
| 20260504192222 | 21 | 267 | 0.0 | 8.0 | 0.00 | 0.00 | 0.00 | 42 | 1014.0 |
| 20260504191222 | 21 | 313 | 4.8 | 14.5 | 0.00 | 0.00 | 0.00 | 41 | 1014.0 |
| 20260504190722 | 20 | 240 | 1.6 | 9.7 | 0.00 | 0.00 | 0.00 | 42 | 1014.0 |
| 20260504185721 | 21 | 310 | 0.0 | 14.5 | 0.00 | 0.00 | 0.00 | 40 | 1014.0 |
| 20260504185222 | 21 | 310 | 4.8 | 14.5 | 0.00 | 0.00 | 0.00 | 41 | 1014.0 |
| 20260504183722 | 20 | 202 | 1.6 | 6.4 | 0.00 | 0.00 | 0.00 | 40 | 1014.3 |
| 20260504182751 | 20 | 200 | 1.6 | 8.0 | 0.00 | 0.00 | 0.00 | 40 | 1014.3 |
| 20260504181751 | 20 | 158 | 0.0 | 9.7 | 0.00 | 0.00 | 0.00 | 40 | 1014.4 |
| 20260504181251 | 20 | 156 | 0.0 | 9.7 | 0.00 | 0.00 | 0.00 | 41 | 1014.4 |
| 20260504180751 | 20 | 125 | 4.8 | 11.3 | 0.00 | 0.00 | 0.00 | 39 | 1014.4 |
| 20260504175751 | 20 | 319 | 3.2 | 8.0 | 0.00 | 0.00 | 0.00 | 39 | 1014.4 |
| 20260504175250 | 20 | 319 | 3.2 | 8.0 | 0.00 | 0.00 | 0.00 | 38 | 1014.4 |
| 20260504174750 | 19 | 326 | 0.0 | 9.7 | 0.00 | 0.00 | 0.00 | 37 | 1014.6 |
| 20260504173751 | 18 | 304 | 1.6 | 6.4 | 0.00 | 0.00 | 0.00 | 37 | 1014.5 |
| 20260504173251 | 18 | 304 | 3.2 | 6.4 | 0.00 | 0.00 | 0.00 | 37 | 1014.5 |
| 20260504171750 | 17 | 306 | 0.0 | 6.4 | 0.00 | 0.00 | 0.00 | 35 | 1014.4 |
| 20260504171250 | 17 | 306 | 0.0 | 6.4 | 0.00 | 0.00 | 0.00 | 35 | 1014.4 |
| 20260504170750 | 17 | 306 | 0.0 | 3.2 | 0.00 | 0.00 | 0.00 | 34 | 1014.5 |
| 20260504170250 | 16 | 306 | 0.0 | 0.0 | 0.00 | 0.00 | 0.00 | 34 | 1014.5 |
| 20260504160250 | 12 | 308 | 0.0 | 0.0 | 0.00 | 0.00 | 0.00 | 23 | 1014.6 |
| 20260504150748 | 10 | 299 | 0.0 | 0.0 | 0.00 | 0.00 | 0.00 | 14 | 1014.6 |
| 20260504150248 | 10 | 299 | 0.0 | 0.0 | 0.00 | 0.00 | 0.00 | 15 | 1014.6 |
| 20260504141247 | 6 | 299 | 0.0 | 0.0 | 0.00 | 0.00 | 0.00 | 17 | 1014.2 |
| 20260504140748 | 6 | 299 | 0.0 | 0.0 | 0.00 | 0.00 | 0.00 | 17 | 1014.2 |
| 20260504140248 | 5 | 299 | 0.0 | 0.0 | 0.00 | 0.00 | 0.00 | 17 | 1014.1 |
| 20260504130747 | 5 | 299 | 0.0 | 0.0 | 0.00 | 0.00 | 0.00 | 18 | 1014.0 |
| 20260504130246 | 5 | 299 | 0.0 | 0.0 | 0.00 | 0.00 | 0.00 | 18 | 1014.1 |
| 20260504110245 | 7 | 299 | 0.0 | 0.0 | 0.00 | 0.00 | 0.00 | 19 | 1014.0 |
| 20260504100245 | 7 | 299 | 0.0 | 0.0 | 0.00 | 0.00 | 0.00 | 20 | 1014.2 |
| 20260504081743 | 8 | 299 | 0.0 | 0.0 | 0.00 | 0.00 | 0.00 | 29 | 1014.6 |
| 20260504081242 | 8 | 299 | 0.0 | 0.0 | 0.00 | 0.00 | 0.00 | 29 | 1014.9 |
| 20260504080742 | 9 | 299 | 0.0 | 0.0 | 0.00 | 0.00 | 0.00 | 29 | 1014.9 |
| 20260504080242 | 9 | 299 | 0.0 | 0.0 | 0.00 | 0.00 | 0.00 | 29 | 1014.9 |
| 20260504070241 | 11 | 299 | 0.0 | 0.0 | 0.00 | 0.00 | 0.00 | 32 | 1014.9 |
| 20260504050741 | 13 | 299 | 0.0 | 4.8 | 0.00 | 0.00 | 0.00 | 40 | 1014.7 |
| 20260504050240 | 13 | 299 | 1.6 | 4.8 | 0.00 | 0.00 | 0.00 | 41 | 1014.7 |
| 20260504045740 | 13 | 299 | 0.0 | 0.0 | 0.00 | 0.00 | 0.00 | 41 | 1014.7 |
| 20260504045240 | 13 | 299 | 0.0 | 1.6 | 0.00 | 0.00 | 0.00 | 42 | 1014.6 |
| 20260504044740 | 13 | 299 | 0.0 | 1.6 | 0.00 | 0.00 | 0.00 | 42 | 1014.7 |
| 20260504044240 | 13 | 299 | 0.0 | 0.0 | 0.00 | 0.00 | 0.00 | 42 | 1014.7 |
| 20260504043239 | 13 | 299 | 0.0 | 0.0 | 0.00 | 0.00 | 0.00 | 43 | 1014.6 |
| 20260504042739 | 13 | 299 | 0.0 | 0.0 | 0.00 | 0.00 | 0.00 | 43 | 1014.6 |
| 20260504042241 | 13 | 299 | 0.0 | 0.0 | 0.00 | 0.00 | 0.00 | 44 | 1014.4 |
| 20260504041239 | 14 | 299 | 0.0 | 3.2 | 0.00 | 0.00 | 0.00 | 44 | 1014.0 |
| 20260504040739 | 14 | 299 | 0.0 | 3.2 | 0.00 | 0.00 | 0.00 | 45 | 1013.9 |
| 20260504040239 | 14 | 299 | 0.0 | 0.0 | 0.00 | 0.00 | 0.00 | 45 | 1013.9 |
| 20260504035739 | 14 | 299 | 0.0 | 0.0 | 0.00 | 0.00 | 0.00 | 45 | 1013.9 |
| 20260504035239 | 14 | 299 | 0.0 | 0.0 | 0.00 | 0.00 | 0.00 | 45 | 1013.8 |
| 20260504034739 | 14 | 299 | 0.0 | 0.0 | 0.00 | 0.00 | 0.00 | 46 | 1013.7 |
| 20260504034239 | 14 | 299 | 0.0 | 3.2 | 0.00 | 0.00 | 0.00 | 46 | 1013.5 |
| 20260504033238 | 14 | 299 | 0.0 | 14.5 | 0.00 | 0.00 | 0.00 | 46 | 1013.4 |
| 20260504032739 | 15 | 299 | 1.6 | 14.5 | 0.00 | 0.00 | 0.00 | 46 | 1013.4 |
| 20260504031239 | 15 | 307 | 1.6 | 8.0 | 0.00 | 0.00 | 0.00 | 47 | 1013.3 |
| 20260504030738 | 15 | 309 | 3.2 | 9.7 | 0.00 | 0.00 | 0.00 | 47 | 1013.2 |
| 20260504030238 | 15 | 291 | 6.4 | 9.7 | 0.00 | 0.00 | 0.00 | 47 | 1013.2 |
| 20260504025738 | 15 | 300 | 0.0 | 11.3 | 0.00 | 0.00 | 0.00 | 46 | 1013.2 |
| 20260504025238 | 15 | 300 | 4.8 | 11.3 | 0.00 | 0.00 | 0.00 | 46 | 1013.0 |
| 20260504024739 | 15 | 302 | 3.2 | 11.3 | 0.00 | 0.00 | 0.00 | 46 | 1013.0 |
| 20260504024238 | 15 | 302 | 0.0 | 8.0 | 0.00 | 0.00 | 0.00 | 46 | 1013.1 |
| 20260504023738 | 15 | 302 | 0.0 | 11.3 | 0.00 | 0.00 | 0.00 | 45 | 1012.9 |
| 20260504023238 | 15 | 302 | 0.0 | 12.9 | 0.00 | 0.00 | 0.00 | 45 | 1012.9 |
| 20260504022737 | 16 | 306 | 0.0 | 12.9 | 0.00 | 0.00 | 0.00 | 45 | 1012.8 |
| 20260504022237 | 16 | 295 | 0.0 | 16.1 | 0.00 | 0.00 | 0.00 | 45 | 1012.9 |
| 20260504021738 | 16 | 277 | 4.8 | 16.1 | 0.00 | 0.00 | 0.00 | 45 | 1012.9 |
| 20260504021238 | 16 | 286 | 1.6 | 14.5 | 0.00 | 0.00 | 0.00 | 46 | 1012.7 |
| 20260504020738 | 16 | 302 | 4.8 | 16.1 | 0.00 | 0.00 | 0.00 | 46 | 1012.6 |
| 20260504020237 | 16 | 302 | 3.2 | 16.1 | 0.00 | 0.00 | 0.00 | 45 | 1012.6 |
| 20260504015738 | 16 | 277 | 1.6 | 9.7 | 0.00 | 0.00 | 0.00 | 45 | 1012.6 |
| 20260504015238 | 16 | 296 | 4.8 | 11.3 | 0.00 | 0.00 | 0.00 | 45 | 1012.6 |
| 20260504014737 | 16 | 296 | 0.0 | 11.3 | 0.00 | 0.00 | 0.00 | 45 | 1012.7 |
| 20260504014237 | 16 | 288 | 0.0 | 9.7 | 0.00 | 0.00 | 0.00 | 45 | 1012.7 |
| 20260504013737 | 16 | 299 | 8.0 | 9.7 | 0.00 | 0.00 | 0.00 | 45 | 1012.4 |
| 20260504013237 | 16 | 302 | 0.0 | 9.7 | 0.00 | 0.00 | 0.00 | 45 | 1012.3 |
| 20260504012737 | 16 | 234 | 0.0 | 11.3 | 0.00 | 0.00 | 0.00 | 45 | 1012.3 |
| 20260504012237 | 16 | 304 | 0.0 | 14.5 | 0.00 | 0.00 | 0.00 | 45 | 1012.3 |
| 20260504011737 | 16 | 306 | 4.8 | 17.7 | 0.00 | 0.00 | 0.00 | 45 | 1012.3 |
| 20260504011237 | 16 | 304 | 0.0 | 17.7 | 0.00 | 0.00 | 0.00 | 45 | 1012.3 |
| 20260504010737 | 16 | 304 | 1.6 | 9.7 | 0.00 | 0.00 | 0.00 | 45 | 1012.2 |
| 20260504010236 | 16 | 306 | 1.6 | 9.7 | 0.00 | 0.00 | 0.00 | 45 | 1012.3 |
| 20260504005737 | 16 | 298 | 1.6 | 16.1 | 0.00 | 0.00 | 0.00 | 45 | 1012.3 |
| 20260504004736 | 17 | 226 | 0.0 | 16.1 | 0.00 | 0.00 | 0.00 | 44 | 1012.4 |
| 20260504004236 | 17 | 241 | 14.5 | 16.1 | 0.00 | 0.00 | 0.00 | 44 | 1012.4 |
| 20260504003736 | 17 | 309 | 4.8 | 16.1 | 0.00 | 0.00 | 0.00 | 43 | 1012.3 |
| 20260504003236 | 17 | 275 | 3.2 | 9.7 | 0.00 | 0.00 | 0.00 | 43 | 1012.1 |
| 20260504002736 | 17 | 290 | 1.6 | 9.7 | 0.00 | 0.00 | 0.00 | 43 | 1012.1 |
| 20260504002236 | 17 | 303 | 3.2 | 14.5 | 0.00 | 0.00 | 0.00 | 42 | 1012.1 |
| 20260504001736 | 17 | 281 | 0.0 | 14.5 | 0.00 | 0.00 | 0.00 | 43 | 1012.1 |
| 20260504000235 | 18 | 275 | 4.8 | 14.5 | 0.00 | 0.00 | 0.00 | 42 | 1012.1 |
| 20260503234735 | 18 | 280 | 0.0 | 6.4 | 0.00 | 0.00 | 0.00 | 42 | 1011.8 |
| 20260503233736 | 18 | 277 | 0.0 | 8.0 | 0.00 | 0.00 | 0.00 | 41 | 1011.7 |
| 20260503233235 | 19 | 273 | 0.0 | 16.1 | 0.00 | 0.00 | 0.00 | 41 | 1011.6 |
| 20260503232735 | 19 | 261 | 3.2 | 16.1 | 0.00 | 0.00 | 0.00 | 41 | 1011.6 |
| 20260503232235 | 19 | 276 | 6.4 | 9.7 | 0.00 | 0.00 | 0.00 | 41 | 1011.6 |
| 20260503231735 | 19 | 158 | 0.0 | 8.0 | 0.00 | 0.00 | 0.00 | 40 | 1011.6 |
| 20260503231235 | 20 | 275 | 4.8 | 8.0 | 0.00 | 0.00 | 0.00 | 40 | 1011.8 |
| 20260503225735 | 19 | 184 | 0.0 | 11.3 | 0.00 | 0.00 | 0.00 | 40 | 1011.6 |
| 20260503225234 | 19 | 29 | 0.0 | 4.8 | 0.00 | 0.00 | 0.00 | 40 | 1011.7 |
| 20260503224734 | 19 | 124 | 0.0 | 9.7 | 0.00 | 0.00 | 0.00 | 40 | 1011.7 |
| 20260503224234 | 19 | 123 | 0.0 | 9.7 | 0.00 | 0.00 | 0.00 | 40 | 1011.9 |
| 20260503223735 | 19 | 132 | 0.0 | 4.8 | 0.00 | 0.00 | 0.00 | 39 | 1011.8 |
| 20260503223234 | 19 | 132 | 0.0 | 4.8 | 0.00 | 0.00 | 0.00 | 40 | 1011.8 |
| 20260503222736 | 19 | 132 | 0.0 | 6.4 | 0.00 | 0.00 | 0.00 | 40 | 1011.9 |
| 20260503221734 | 18 | 130 | 0.0 | 6.4 | 0.00 | 0.00 | 0.00 | 40 | 1012.2 |
| 20260503221234 | 18 | 131 | 0.0 | 6.4 | 0.00 | 0.00 | 0.00 | 40 | 1012.2 |
| 20260503220734 | 18 | 131 | 0.0 | 6.4 | 0.00 | 0.00 | 0.00 | 40 | 1012.3 |